Location: Bailleul
(50.3375°N, 2.8513°E)
Time: 20:46:02
(UTC+00:00)

SeaSat 1 - Pass Details

Date: 19 April 2021
Orbit: 744 x 747 km, 108.0° (Epoch: 18 May)

Event Time Altitude Azimuth Distance (km) Brightness Sun altitude
Rises 22:14:57 0° 33° (NNE) 3,204 6.1 -24.9°
Reaches altitude 10° 22:17:18 10° 38° (NE) 2,275 5.3 -25.1°
Enters shadow 22:21:11 46° 77° (ENE) 1,007 3.0 -25.3°
